Location: Detroit
(42.3310°N, 83.0460°W)
Time: 15:32:35
(UTC-04:00)

Courier 1B Rocket - Pass Details

Date: 27 April 2024
Orbit: 920 x 1201 km, 28.2° (Epoch: 19 May)

Event Time Altitude Azimuth Distance (km) Brightness Sun altitude
Exits shadow 03:38:02 24° 151° (SSE) 2,258 6.6 -26.4°
Drops below altitude 10° 03:42:21 10° 119° (ESE) 3,081 7.7 -25.9°
Sets 03:45:39 0° 107° (ESE) 4,011 8.5 -25.6°
